Regional Weather Roundup
Issued by NWS Grand Forks, ND

Home | Current Version | Previous Version | Graphics & Text | Print | Product List | Glossary On
Versions: 1 2 3 4 5 6 7 8 9 10 11 12 13 14 15 16 17 18 19 20 21 22 23 24 25 26 27 28 29 30 31 32 33 34 35 36 37 38 39 40 41 42 43 44 45 46 47 48 49 50
000
ASUS43 KFGF 060531
RWRFGF
PRAIRIE TO PINES  WEATHER ROUNDUP
NATIONAL WEATHER SERVICE EASTERN NORTH DAKOTA/GRAND FORKS ND
1200 AM CDT WED MAY 06 2015

 **SATELLITE DATA USED TO AUGMENT SKY COVER AT AUTOMATED STATIONS**
 *****  WEATHER ACROSS EASTERN NORTH DAKOTA  *****

CITY           SKY/WX    TMP DP  RH WIND       PRES   REMARKS
GRAND FORKS    CLEAR     65  53  65 S14       29.97R
GRAND FRKS AFB CLEAR     63  52  67 S12       29.96S
GRAND FRKS NWS   N/A     61 N/A N/A S10         N/A
DEVILS LAKE    CLEAR     63  50  63 SE15G21   29.91S
FARGO          CLOUDY    65  53  65 S14G24    29.99S
WAHPETON ARPT  CLOUDY    59  52  77 S20       30.01F
$$

 ***** WEATHER ACROSS CENTRAL AND WESTERN NORTH DAKOTA  *****

CITY           SKY/WX    TMP DP  RH WIND       PRES   REMARKS
BISMARCK       MOCLDY    60  52  74 SE12      29.85F
MINOT          CLEAR     57  39  51 SE6       29.83S
JAMESTOWN      CLOUDY    62  54  74 SE15      29.92S
MINOT AFB      NOT AVBL
GARRISON         N/A     56  45  66 SE7       29.82F
WILLISTON      CLEAR     63  50  62 SE6       29.78S
DICKINSON      MOCLDY    53  49  86 E8        29.78F
HETTINGER      CLOUDY    58  51  78 SE14      29.82F
$$

 *****  OTHER AIRPORT OBSERVATIONS IN OUR AREA  *****

CITY           SKY/WX    TMP DP  RH WIND       PRES   REMARKS
WALHALLA       FAIR      63  39  42 SE10      29.94S
GRAFTON AIRPOR FAIR      64  52  63 S15G22    29.97S
VALLEY CITY AR CLOUDY    61  57  88 SE15G23   29.96S
CANDO          FAIR      59  48  67 SE13      29.91S
CAVALIER APRT  FAIR      64  45  48 S13G18    29.95S
GWINNER        CLOUDY    61  55  82 SE15      29.98S
ROLLA          NOT AVBL
 ***** THE ABOVE OBSERVATIONS ARE NON NWS ARE NOT QUALITY
       CONTROLLED AND MAY MIS-REPORT RAIN FOR SNOW...
$$

  *****  WEATHER ACROSS NORTHERN MINNESOTA  *****

CITY           SKY/WX    TMP DP  RH WIND       PRES   REMARKS
FLAG ISLAND    PTCLDY    61  37  41 SE9       30.02F
WARROAD        DRIZZLE   63  39  42 SE10      30.03S
ROSEAU         PTCLDY    64  37  36 S12       30.01S
HALLOCK        CLEAR     61  30  31 SE9       29.97S
THF RVR FALLS  PTCLDY    57  37  47 SE8       30.02S
BAUDETTE       PTCLDY    57  32  38 SE7       30.05F
WASKISH        CLOUDY    59  41  51 CALM      30.07S
CROOKSTON      PTCLDY    61  48  63 S10       30.00S
STEPHEN NDAWN    N/A     64  46  52 S13         N/A
GREENBUSH NDAW   N/A     61  34  36 S9          N/A
$$
  *****  WEATHER ACROSS CENTRAL AND WEST MINNESOTA  *****

CITY           SKY/WX    TMP DP  RH WIND       PRES   REMARKS
FOSSTON        PTCLDY    61  43  51 SE8       30.03S
BEMIDJI        MOCLDY    62  41  46 SE10      30.06S
PARK RAPIDS    PTCLDY    61  43  51 SE8       30.06S
ELBOW LAKE     CLOUDY    59  54  84 SE14G23   30.04R
WADENA         CLOUDY    61  50  67 SE10      30.06S
DETROIT LAKES  CLOUDY    61  52  72 S14       30.04S
MOORHEAD       MOCLDY    63  54  72 S17G23    30.00S
FERGUS FALLS   CLOUDY    63  54  72 SE14      30.03F
MORRIS MN      CLOUDY    57  54  88 SE17      30.03S
STAPLES        CLOUDY    61  48  63 SE8       30.07F
$$
  *****  WEATHER ELSEWHERE ACROSS MINNESOTA  *****

CITY           SKY/WX    TMP DP  RH WIND       PRES   REMARKS
DULUTH         PTCLDY    50  27  40 E8        30.16F
INTRNTL FALLS  CLEAR     52  32  46 SE5       30.10R
ELY            CLEAR     45  27  49 CALM      30.16F
CLOQUET        MOCLDY    46  30  53 CALM      30.15F
WHEATON        CLOUDY    57  52  82 SE16G23   30.03S
BRAINERD       CLOUDY    60  43  53 SE12      30.10S
HIBBING        CLEAR     48  25  40 SE7       30.14F
ALEXANDRIA     CLOUDY    58  53  84 SE14      30.07F
SAINT CLOUD    CLOUDY    58  52  80 SE15G23   30.10F
MINNEAPOLIS    CLOUDY    56  53  90 SE13      30.13S
$$

  *****  WEATHER ACROSS SOUTH DAKOTA  *****

CITY           SKY/WX    TMP DP  RH WIND       PRES   REMARKS
SIOUX FALLS    CLOUDY    62  59  90 SE16      29.99S
BROOKINGS      CLOUDY    59  57  94 SE17      30.00S
WATERTOWN      CLOUDY    59  56  89 SE10      29.99F
HURON          PTCLDY    61  57  87 SE12      29.92F
SISSETON         N/A     59  55  87 S15       29.99S
ABERDEEN       CLOUDY    60  56  86 SE7       29.93F
MITCHELL       MOCLDY    63  59  87 SE12      29.93F
PIERRE         CLOUDY    57  56  96 SE8       29.86F FOG
MOBRIDGE       CLOUDY    60  55  83 SE10      29.86F
RAPID CITY     CLOUDY    57  52  83 SE10      29.82F
$$

  *****  SOME WEATHER IN NEARBY STATES *****

CITY           SKY/WX    TMP DP  RH WIND       PRES   REMARKS
GLASGOW MT     PTCLDY    66  49  54 SE20      29.64S
GREAT FALLS MT CLOUDY    51  47  86 N7        29.79R
CHEYENNE WY    LGT RAIN  47  46  97 N5        29.80F FOG
SCOTTSBLUFF NE LGT RAIN  53  32  44 SE16      29.79F
OMAHA NE       CLOUDY    69  58  67 SE17      29.98S
DES MOINES IA  CLOUDY    68  63  84 E10       30.06S HAZE
DAVENPORT IA   CLOUDY    58  56  93 E10       30.16F FOG
CHICAGO IL     CLOUDY    47  46  97 NE6       30.21S FOG
EAU CLAIRE WI  LGT RAIN  53  48  83 MISG      30.18S
LA CROSSE WI   CLOUDY    56  52  86 E6        30.19R
$$

  *****  SOME NATIONAL WEATHER *****

CITY           SKY/WX    TMP DP  RH WIND       PRES   REMARKS
LA GUARDIA NY  CLOUDY    64  52  64 CALM      30.19R
RALEIGH NC     MOCLDY    63  52  67 S5        30.29F
ATLANTA GA     PTCLDY    67  51  56 E5        30.25S
NEW ORLEANS LA PTCLDY    70  63  78 SE3       30.12S
OKLAHOMA CITY  TSTM      66  64  94 SE16      29.90R
ALBUQUERQUE NM MOCLDY    55  46  71 S7        29.97R
SALT LAKE CITY CLOUDY    56  49  77 S8        29.83S
LOS ANGELES CA PTCLDY    58  51  78 SW6       29.96S
BOISE ID       CLEAR     55  23  28 NW10      29.85R
SEATTLE WA     CLOUDY    47  44  90 E5        30.11R
$$

*** WEATHER ACROSS MANITOBA...SASKATCHEWAN AND ONTARIO ***
                ***ONTARIO***

CITY           SKY/WX    TMP DP  RH WIND       PRES   REMARKS
GERALDTON      CLEAR     45  28  53 S7        30.19F
THUNDER BAY    CLEAR     39  30  70 CALM      30.22F
SIOUX LOOKOUT  CLEAR     52  28  40 S5        30.11S
TORONTO        MOCLDY    48  34  57 NW3       30.29S
BIG TROUT LK   CLOUDY    34  27  75 CALM      30.19S
PICKLE LAKE    NOT AVBL
DRYDEN         PTCLDY    55  28  35 S9        30.09S
KENORA         PTCLDY    57  30  35 SE7       30.06S
$$
                *** MANITOBA***

CITY           SKY/WX    TMP DP  RH WIND       PRES   REMARKS
BRANDON        PTCLDY    59  30  33 SE10      29.89S
DAUPHIN        CLEAR     64  32  29 S12       29.87S
ISLAND LAKE    CLOUDY    37  34  87 E6        30.15S
PILOT MOUND      N/A     59  28  31 SE15        N/A
THE PAS        CLOUDY    41  27  56 E13G21    29.97F
THOMPSON       PTCLDY    37  18  44 NE6       30.15S
WINNIPEG       PTCLDY    66  25  20 SE17      29.97S
LYNN LAKE      MOCLDY    37  19  48 E7        30.12F
CHURCHILL      FLURRIES  18  12  79 NW17      30.31S WCI   2
GILLAM         CLEAR     30  19  64 E6        30.23R WCI  24
$$
                ***SASKATCHEWAN***

CITY           SKY/WX    TMP DP  RH WIND       PRES   REMARKS
ESTEVAN        MOCLDY    57  46  67 SE12      29.79S
KINDERSLEY     CLOUDY    55  48  76 W8        29.67F
LLOYDMINSTER   CLEAR     50  39  66 E18       29.69S
PRINCE ALBERT  CLOUDY    45  39  81 E21       29.79F
REGINA         MOCLDY    64  50  59 SE17G25   29.72S
YORKTON        CLEAR     59  37  44 SE9       29.80S
N. BATTLEFORD  PTCLDY    50  39  66 E16       29.71S
LA RONGE       MOCLDY    43  27  52 E10G17    29.97S
SASKATOON      LGT RAIN  63  48  59 S9        29.70R
SWIFT CURRENT  CLOUDY    64  41  42 W17G26    29.68F
$$
NOTE: THESE ARE AUTOMATED STATIONS WITH LIMITED QUALITY CONTROL
      "FAIR" INDICATES FEW OR NO CLOUDS BELOW 12,000 FEET WITH NO
      SIGNIFICANT WEATHER AND/OR OBSTRUCTIONS TO VISIBILITY.
      SKY/WX - SKY CONDITION AND SIGNIFICANT WEATHER.
      TMP - AIR TEMPERATURE.    DP   - DEWPOINT TEMPERATURE.
      RH  - RELATIVE HUMIDITY.  PRES - PRESSURE.
      HX  - HEAT INDEX.         WCI  - WIND CHILL INDEX.
$



USA.gov is the U.S. government's official web portal to all federal, state and local government web resources and services.